Regional Weather Roundup
Issued by NWS

Home | Current Version | Previous Version | Graphics & Text | Print | Product List | Glossary On
Versions: 1 2 3 4 5 6 7 8 9 10 11 12 13 14 15 16 17 18 19 20 21 22 23 24 25 26 27 28 29 30 31 32 33 34 35 36 37 38 39 40 41 42 43 44 45 46 47 48 49 50
000
ASUS45 KCYS 191210
RWRWY

WYOMING REGIONAL WEATHER ROUNDUP
NATIONAL WEATHER SERVICE CHEYENNE WY
600 AM MDT TUE AUG 19 2014

NOTE:  "FAIR" INDICATES FEW OR NO CLOUDS BELOW 12,000 FEET
WITH NO SIGNIFICANT WEATHER AND/OR OBSTRUCTIONS TO VISIBILITY.

WYZ001-191300-
YELLOWSTONE NATIONAL PARK

CITY           SKY/WX    TMP DP  RH WIND       PRES   REMARKS
LK YELLOWSTONE   N/A     37  37 100 NW3       30.18S
6HR MIN TEMP:  37; 6HR MAX TEMP:  43;

W YELLOWSTONE  NOT AVBL

$$
WYZ002>013-054>058-071-098>099-191300-
NORTHERN WYOMING

CITY           SKY/WX    TMP DP  RH WIND       PRES   REMARKS
JACKSON        PTCLDY    46  39  76 N9        30.07F
CODY           PTCLDY    63  39  42 SW9       29.93S
GREYBULL       CLEAR     55  46  71 S3        29.88S
6HR MIN TEMP:  55; 6HR MAX TEMP:  69;

WORLAND        MOCLDY    58  41  53 S10       29.89F
6HR MIN TEMP:  53; 6HR MAX TEMP:  64;

SHERIDAN       CLEAR     50  45  83 CALM      29.87S
6HR MIN TEMP:  48; 6HR MAX TEMP:  57;

BUFFALO        CLEAR     59  42  53 W7        29.93F
6HR MIN TEMP:  57; 6HR MAX TEMP:  68;

GILLETTE       PTCLDY    63  48  58 S5        29.91S
6HR MIN TEMP:  60; 6HR MAX TEMP:  67;

HULETT         FAIR      57  48  72 MISG      29.92
NEWCASTLE      FAIR      59  46  63 CALM      29.94

$$
WYZ014>020-022>026-101>103-191300-
CENTRAL WYOMING

CITY           SKY/WX    TMP DP  RH WIND       PRES   REMARKS
BIG PINEY      PTCLDY    43  35  73 SW6       30.11S
6HR MIN TEMP:  43; 6HR MAX TEMP:  62;

PINEDALE       MOSUNNY   43  36  75 NW6       30.11S
DUBOIS         FAIR      48  34  57 NW12      30.11S
LANDER         PTCLDY    56  39  53 SE3       29.98S
6HR MIN TEMP:  56; 6HR MAX TEMP:  68;

RIVERTON       PTCLDY    58  38  47 W8        29.98F
6HR MIN TEMP:  56; 6HR MAX TEMP:  68;

CASPER         PTCLDY    49  40  71 W3        29.97S
6HR MIN TEMP:  49; 6HR MAX TEMP:  60;

DOUGLAS        PTCLDY    53  48  83 N3        29.96S
6HR MIN TEMP:  51; 6HR MAX TEMP:  66;


$$
WYZ021-027>030-104>119-191300-
SOUTHERN WYOMING

CITY           SKY/WX    TMP DP  RH WIND       PRES   REMARKS
EVANSTON       MOCLDY    62  39  42 SW9       30.11S
6HR MIN TEMP:  59; 6HR MAX TEMP:  65;

KEMMERER       PTSUNNY   52  37  58 N8        30.12F
FORT BRIDGER   FAIR      62  37  40 W6        30.13S
ROCK SPRINGS   MOCLDY    55  30  38 SW7       30.07S
6HR MIN TEMP:  54; 6HR MAX TEMP:  67;

DIXON          FAIR      51  35  52 E5        30.11S
RAWLINS        PTCLDY    47  33  58 NE5       30.07S
6HR MIN TEMP:  47; 6HR MAX TEMP:  61;

SARATOGA       FAIR      54  36  50 MISG      30.11S
LARAMIE        CLEAR     46  38  73 SE6       30.12S
6HR MIN TEMP:  45; 6HR MAX TEMP:  58;

CHEYENNE       CLEAR     54  48  80 W7        30.03F
6HR MIN TEMP:  53; 6HR MAX TEMP:  62;

TORRINGTON     PTCLDY    58  54  86 E6        29.92R
6HR MIN TEMP:  56; 6HR MAX TEMP:  62;

PINE BLUFFS    FAIR      50  46  87 SW3       29.99F

$$


USA.gov is the U.S. government's official web portal to all federal, state and local government web resources and services.